Tracking 29494 objects as of 7-Sep-2024
HD Live streaming from Space Station
objects crossing your sky now

STARLINK-5174

Track STARLINK-5174 now!
10-day predictions
STARLINK-5174 is classified as:


NORAD ID: 54067
Int'l Code: 2022-136S
Perigee: 545.8 km
Apogee: 547.9 km
Inclination: 53.2 °
Period: 95.4 minutes
Semi major axis: 6917 km
RCS: Unknown
Launch date: October 20, 2022
Source: United States (US)
Launch site: AIR FORCE EASTERN TEST RANGE (AFETR)
Your satellite tracking list
Your tracking list is empty




NASA's NSSDC Master Catalog

Two Line Element Set (TLE):
1 54067U 22136S   24251.39728681 -.00000503  00000-0 -13533-4 0  9993
2 54067  53.2147 285.2782 0001490 111.7953 248.3198 15.08840928104073
Source of the keplerian elements: AFSPC